Index of /20260411/WXO-DD/model_gdps/15km/12/099
Name Last modified Size Description
Parent Directory -
20260411T12Z_MSC_GDPS_AbsoluteVorticity_IsbL-0200_LatLon0.15_PT099H.grib2 2026-04-11 16:45 1.2M
20260411T12Z_MSC_GDPS_AbsoluteVorticity_IsbL-0250_LatLon0.15_PT099H.grib2 2026-04-11 16:45 1.3M
20260411T12Z_MSC_GDPS_AbsoluteVorticity_IsbL-0500_LatLon0.15_PT099H.grib2 2026-04-11 16:45 1.5M
20260411T12Z_MSC_GDPS_AbsoluteVorticity_IsbL-0700_LatLon0.15_PT099H.grib2 2026-04-11 16:45 1.3M
20260411T12Z_MSC_GDPS_AbsoluteVorticity_IsbL-0850_LatLon0.15_PT099H.grib2 2026-04-11 16:45 1.6M
20260411T12Z_MSC_GDPS_AirTemp_AGL-120m_LatLon0.15_PT099H.grib2 2026-04-11 16:45 916K
20260411T12Z_MSC_GDPS_AirTemp_AGL-2m_LatLon0.15_PT099H.grib2 2026-04-11 16:45 1.0M
20260411T12Z_MSC_GDPS_AirTemp_AGL-40m_LatLon0.15_PT099H.grib2 2026-04-11 16:45 936K
20260411T12Z_MSC_GDPS_AirTemp_AGL-80m_LatLon0.15_PT099H.grib2 2026-04-11 16:45 926K
20260411T12Z_MSC_GDPS_AirTemp_IsbL-0001_LatLon0.15_PT099H.grib2 2026-04-11 16:45 697K
20260411T12Z_MSC_GDPS_AirTemp_IsbL-0005_LatLon0.15_PT099H.grib2 2026-04-11 16:45 681K
20260411T12Z_MSC_GDPS_AirTemp_IsbL-0010_LatLon0.15_PT099H.grib2 2026-04-11 16:45 754K
20260411T12Z_MSC_GDPS_AirTemp_IsbL-0020_LatLon0.15_PT099H.grib2 2026-04-11 16:45 698K
20260411T12Z_MSC_GDPS_AirTemp_IsbL-0030_LatLon0.15_PT099H.grib2 2026-04-11 16:45 751K
20260411T12Z_MSC_GDPS_AirTemp_IsbL-0050_LatLon0.15_PT099H.grib2 2026-04-11 16:45 817K
20260411T12Z_MSC_GDPS_AirTemp_IsbL-0100_LatLon0.15_PT099H.grib2 2026-04-11 16:45 953K
20260411T12Z_MSC_GDPS_AirTemp_IsbL-0150_LatLon0.15_PT099H.grib2 2026-04-11 16:45 961K
20260411T12Z_MSC_GDPS_AirTemp_IsbL-0175_LatLon0.15_PT099H.grib2 2026-04-11 16:45 950K
20260411T12Z_MSC_GDPS_AirTemp_IsbL-0200_LatLon0.15_PT099H.grib2 2026-04-11 16:45 962K
20260411T12Z_MSC_GDPS_AirTemp_IsbL-0225_LatLon0.15_PT099H.grib2 2026-04-11 16:45 969K
20260411T12Z_MSC_GDPS_AirTemp_IsbL-0250_LatLon0.15_PT099H.grib2 2026-04-11 16:45 1.0M
20260411T12Z_MSC_GDPS_AirTemp_IsbL-0275_LatLon0.15_PT099H.grib2 2026-04-11 16:45 941K
20260411T12Z_MSC_GDPS_AirTemp_IsbL-0300_LatLon0.15_PT099H.grib2 2026-04-11 16:45 950K
20260411T12Z_MSC_GDPS_AirTemp_IsbL-0350_LatLon0.15_PT099H.grib2 2026-04-11 16:45 925K
20260411T12Z_MSC_GDPS_AirTemp_IsbL-0400_LatLon0.15_PT099H.grib2 2026-04-11 16:45 937K
20260411T12Z_MSC_GDPS_AirTemp_IsbL-0450_LatLon0.15_PT099H.grib2 2026-04-11 16:45 957K
20260411T12Z_MSC_GDPS_AirTemp_IsbL-0500_LatLon0.15_PT099H.grib2 2026-04-11 16:45 1.0M
20260411T12Z_MSC_GDPS_AirTemp_IsbL-0550_LatLon0.15_PT099H.grib2 2026-04-11 16:45 1.0M
20260411T12Z_MSC_GDPS_AirTemp_IsbL-0600_LatLon0.15_PT099H.grib2 2026-04-11 16:45 892K
20260411T12Z_MSC_GDPS_AirTemp_IsbL-0650_LatLon0.15_PT099H.grib2 2026-04-11 16:45 918K
20260411T12Z_MSC_GDPS_AirTemp_IsbL-0700_LatLon0.15_PT099H.grib2 2026-04-11 16:45 957K
20260411T12Z_MSC_GDPS_AirTemp_IsbL-0750_LatLon0.15_PT099H.grib2 2026-04-11 16:45 1.0M
20260411T12Z_MSC_GDPS_AirTemp_IsbL-0800_LatLon0.15_PT099H.grib2 2026-04-11 16:45 1.1M
20260411T12Z_MSC_GDPS_AirTemp_IsbL-0850_LatLon0.15_PT099H.grib2 2026-04-11 16:45 1.1M
20260411T12Z_MSC_GDPS_AirTemp_IsbL-0875_LatLon0.15_PT099H.grib2 2026-04-11 16:45 1.2M
20260411T12Z_MSC_GDPS_AirTemp_IsbL-0900_LatLon0.15_PT099H.grib2 2026-04-11 16:45 1.1M
20260411T12Z_MSC_GDPS_AirTemp_IsbL-0925_LatLon0.15_PT099H.grib2 2026-04-11 16:45 1.1M
20260411T12Z_MSC_GDPS_AirTemp_IsbL-0950_LatLon0.15_PT099H.grib2 2026-04-11 16:45 1.2M
20260411T12Z_MSC_GDPS_AirTemp_IsbL-0970_LatLon0.15_PT099H.grib2 2026-04-11 16:45 1.2M
20260411T12Z_MSC_GDPS_AirTemp_IsbL-0985_LatLon0.15_PT099H.grib2 2026-04-11 16:45 1.1M
20260411T12Z_MSC_GDPS_AirTemp_IsbL-1000_LatLon0.15_PT099H.grib2 2026-04-11 16:45 1.1M
20260411T12Z_MSC_GDPS_AirTemp_IsbL-1015_LatLon0.15_PT099H.grib2 2026-04-11 16:45 1.1M
20260411T12Z_MSC_GDPS_Albedo_Sfc_LatLon0.15_PT099H.grib2 2026-04-11 16:45 245K
20260411T12Z_MSC_GDPS_CAPE_Sfc_LatLon0.15_PT099H.grib2 2026-04-11 16:45 3.8M
20260411T12Z_MSC_GDPS_CIN_Sfc_LatLon0.15_PT099H.grib2 2026-04-11 16:45 2.8M
20260411T12Z_MSC_GDPS_CloudWater_EAtm_LatLon0.15_PT099H.grib2 2026-04-11 16:45 531K
20260411T12Z_MSC_GDPS_ConvectivePrecip-Accum_Sfc_LatLon0.15_PT099H.grib2 2026-04-11 16:45 3.0M
20260411T12Z_MSC_GDPS_DewPointDepression_AGL-2m_LatLon0.15_PT099H.grib2 2026-04-11 16:45 755K
20260411T12Z_MSC_GDPS_DewPointDepression_IsbL-0010_LatLon0.15_PT099H.grib2 2026-04-11 16:45 18K
20260411T12Z_MSC_GDPS_DewPointDepression_IsbL-0020_LatLon0.15_PT099H.grib2 2026-04-11 16:45 47K
20260411T12Z_MSC_GDPS_DewPointDepression_IsbL-0030_LatLon0.15_PT099H.grib2 2026-04-11 16:45 72K
20260411T12Z_MSC_GDPS_DewPointDepression_IsbL-0050_LatLon0.15_PT099H.grib2 2026-04-11 16:45 355K
20260411T12Z_MSC_GDPS_DewPointDepression_IsbL-0100_LatLon0.15_PT099H.grib2 2026-04-11 16:45 378K
20260411T12Z_MSC_GDPS_DewPointDepression_IsbL-0150_LatLon0.15_PT099H.grib2 2026-04-11 16:45 451K
20260411T12Z_MSC_GDPS_DewPointDepression_IsbL-0175_LatLon0.15_PT099H.grib2 2026-04-11 16:45 536K
20260411T12Z_MSC_GDPS_DewPointDepression_IsbL-0200_LatLon0.15_PT099H.grib2 2026-04-11 16:45 632K
20260411T12Z_MSC_GDPS_DewPointDepression_IsbL-0225_LatLon0.15_PT099H.grib2 2026-04-11 16:45 761K
20260411T12Z_MSC_GDPS_DewPointDepression_IsbL-0250_LatLon0.15_PT099H.grib2 2026-04-11 16:45 867K
20260411T12Z_MSC_GDPS_DewPointDepression_IsbL-0275_LatLon0.15_PT099H.grib2 2026-04-11 16:45 891K
20260411T12Z_MSC_GDPS_DewPointDepression_IsbL-0300_LatLon0.15_PT099H.grib2 2026-04-11 16:45 932K
20260411T12Z_MSC_GDPS_DewPointDepression_IsbL-0350_LatLon0.15_PT099H.grib2 2026-04-11 16:45 967K
20260411T12Z_MSC_GDPS_DewPointDepression_IsbL-0400_LatLon0.15_PT099H.grib2 2026-04-11 16:45 1.0M
20260411T12Z_MSC_GDPS_DewPointDepression_IsbL-0450_LatLon0.15_PT099H.grib2 2026-04-11 16:45 1.0M
20260411T12Z_MSC_GDPS_DewPointDepression_IsbL-0500_LatLon0.15_PT099H.grib2 2026-04-11 16:45 1.0M
20260411T12Z_MSC_GDPS_DewPointDepression_IsbL-0550_LatLon0.15_PT099H.grib2 2026-04-11 16:45 1.0M
20260411T12Z_MSC_GDPS_DewPointDepression_IsbL-0600_LatLon0.15_PT099H.grib2 2026-04-11 16:45 1.1M
20260411T12Z_MSC_GDPS_DewPointDepression_IsbL-0650_LatLon0.15_PT099H.grib2 2026-04-11 16:45 1.1M
20260411T12Z_MSC_GDPS_DewPointDepression_IsbL-0700_LatLon0.15_PT099H.grib2 2026-04-11 16:45 1.1M
20260411T12Z_MSC_GDPS_DewPointDepression_IsbL-0750_LatLon0.15_PT099H.grib2 2026-04-11 16:45 1.1M
20260411T12Z_MSC_GDPS_DewPointDepression_IsbL-0800_LatLon0.15_PT099H.grib2 2026-04-11 16:45 1.2M
20260411T12Z_MSC_GDPS_DewPointDepression_IsbL-0850_LatLon0.15_PT099H.grib2 2026-04-11 16:45 1.1M
20260411T12Z_MSC_GDPS_DewPointDepression_IsbL-0875_LatLon0.15_PT099H.grib2 2026-04-11 16:45 1.1M
20260411T12Z_MSC_GDPS_DewPointDepression_IsbL-0900_LatLon0.15_PT099H.grib2 2026-04-11 16:45 1.1M
20260411T12Z_MSC_GDPS_DewPointDepression_IsbL-0925_LatLon0.15_PT099H.grib2 2026-04-11 16:45 1.0M
20260411T12Z_MSC_GDPS_DewPointDepression_IsbL-0950_LatLon0.15_PT099H.grib2 2026-04-11 16:45 1.0M
20260411T12Z_MSC_GDPS_DewPointDepression_IsbL-0970_LatLon0.15_PT099H.grib2 2026-04-11 16:45 1.0M
20260411T12Z_MSC_GDPS_DewPointDepression_IsbL-0985_LatLon0.15_PT099H.grib2 2026-04-11 16:45 1.0M
20260411T12Z_MSC_GDPS_DewPointDepression_IsbL-1000_LatLon0.15_PT099H.grib2 2026-04-11 16:45 1.0M
20260411T12Z_MSC_GDPS_DewPointDepression_IsbL-1015_LatLon0.15_PT099H.grib2 2026-04-11 16:45 920K
20260411T12Z_MSC_GDPS_DewPoint_AGL-2m_LatLon0.15_PT099H.grib2 2026-04-11 16:45 619K
20260411T12Z_MSC_GDPS_DownwardLongwaveRadiationFlux-Accum_Sfc_LatLon0.15_PT099H.grib2 2026-04-11 16:45 722K
20260411T12Z_MSC_GDPS_DownwardShortwaveRadiationFlux-Accum_NTAtm_LatLon0.15_PT099H.grib2 2026-04-11 16:45 280K
20260411T12Z_MSC_GDPS_DownwardShortwaveRadiationFlux-Accum_Sfc_LatLon0.15_PT099H.grib2 2026-04-11 16:45 958K
20260411T12Z_MSC_GDPS_FreezingRain-Accum1h_Sfc_LatLon0.15_PT099H.grib2 2026-04-11 16:45 36K
20260411T12Z_MSC_GDPS_FreezingRain-Accum3h_Sfc_LatLon0.15_PT099H.grib2 2026-04-11 16:45 46K
20260411T12Z_MSC_GDPS_FreezingRain-Accum_Sfc_LatLon0.15_PT099H.grib2 2026-04-11 16:45 227K
20260411T12Z_MSC_GDPS_GeopotentialHeight_IsbL-0001_LatLon0.15_PT099H.grib2 2026-04-11 16:45 542K
20260411T12Z_MSC_GDPS_GeopotentialHeight_IsbL-0005_LatLon0.15_PT099H.grib2 2026-04-11 16:45 507K
20260411T12Z_MSC_GDPS_GeopotentialHeight_IsbL-0010_LatLon0.15_PT099H.grib2 2026-04-11 16:45 438K
20260411T12Z_MSC_GDPS_GeopotentialHeight_IsbL-0020_LatLon0.15_PT099H.grib2 2026-04-11 16:45 581K
20260411T12Z_MSC_GDPS_GeopotentialHeight_IsbL-0030_LatLon0.15_PT099H.grib2 2026-04-11 16:45 583K
20260411T12Z_MSC_GDPS_GeopotentialHeight_IsbL-0050_LatLon0.15_PT099H.grib2 2026-04-11 16:45 582K
20260411T12Z_MSC_GDPS_GeopotentialHeight_IsbL-0100_LatLon0.15_PT099H.grib2 2026-04-11 16:45 615K
20260411T12Z_MSC_GDPS_GeopotentialHeight_IsbL-0150_LatLon0.15_PT099H.grib2 2026-04-11 16:45 631K
20260411T12Z_MSC_GDPS_GeopotentialHeight_IsbL-0175_LatLon0.15_PT099H.grib2 2026-04-11 16:45 633K
20260411T12Z_MSC_GDPS_GeopotentialHeight_IsbL-0200_LatLon0.15_PT099H.grib2 2026-04-11 16:45 636K
20260411T12Z_MSC_GDPS_GeopotentialHeight_IsbL-0225_LatLon0.15_PT099H.grib2 2026-04-11 16:45 632K
20260411T12Z_MSC_GDPS_GeopotentialHeight_IsbL-0250_LatLon0.15_PT099H.grib2 2026-04-11 16:45 640K
20260411T12Z_MSC_GDPS_GeopotentialHeight_IsbL-0275_LatLon0.15_PT099H.grib2 2026-04-11 16:45 637K
20260411T12Z_MSC_GDPS_GeopotentialHeight_IsbL-0300_LatLon0.15_PT099H.grib2 2026-04-11 16:45 636K
20260411T12Z_MSC_GDPS_GeopotentialHeight_IsbL-0350_LatLon0.15_PT099H.grib2 2026-04-11 16:45 627K
20260411T12Z_MSC_GDPS_GeopotentialHeight_IsbL-0400_LatLon0.15_PT099H.grib2 2026-04-11 16:45 615K
20260411T12Z_MSC_GDPS_GeopotentialHeight_IsbL-0450_LatLon0.15_PT099H.grib2 2026-04-11 16:45 536K
20260411T12Z_MSC_GDPS_GeopotentialHeight_IsbL-0500_LatLon0.15_PT099H.grib2 2026-04-11 16:45 527K
20260411T12Z_MSC_GDPS_GeopotentialHeight_IsbL-0550_LatLon0.15_PT099H.grib2 2026-04-11 16:45 688K
20260411T12Z_MSC_GDPS_GeopotentialHeight_IsbL-0600_LatLon0.15_PT099H.grib2 2026-04-11 16:45 681K
20260411T12Z_MSC_GDPS_GeopotentialHeight_IsbL-0650_LatLon0.15_PT099H.grib2 2026-04-11 16:45 681K
20260411T12Z_MSC_GDPS_GeopotentialHeight_IsbL-0700_LatLon0.15_PT099H.grib2 2026-04-11 16:45 680K
20260411T12Z_MSC_GDPS_GeopotentialHeight_IsbL-0750_LatLon0.15_PT099H.grib2 2026-04-11 16:45 686K
20260411T12Z_MSC_GDPS_GeopotentialHeight_IsbL-0800_LatLon0.15_PT099H.grib2 2026-04-11 16:45 702K
20260411T12Z_MSC_GDPS_GeopotentialHeight_IsbL-0850_LatLon0.15_PT099H.grib2 2026-04-11 16:45 708K
20260411T12Z_MSC_GDPS_GeopotentialHeight_IsbL-0875_LatLon0.15_PT099H.grib2 2026-04-11 16:45 717K
20260411T12Z_MSC_GDPS_GeopotentialHeight_IsbL-0900_LatLon0.15_PT099H.grib2 2026-04-11 16:45 723K
20260411T12Z_MSC_GDPS_GeopotentialHeight_IsbL-0925_LatLon0.15_PT099H.grib2 2026-04-11 16:45 732K
20260411T12Z_MSC_GDPS_GeopotentialHeight_IsbL-0950_LatLon0.15_PT099H.grib2 2026-04-11 16:45 738K
20260411T12Z_MSC_GDPS_GeopotentialHeight_IsbL-0970_LatLon0.15_PT099H.grib2 2026-04-11 16:45 750K
20260411T12Z_MSC_GDPS_GeopotentialHeight_IsbL-0985_LatLon0.15_PT099H.grib2 2026-04-11 16:45 766K
20260411T12Z_MSC_GDPS_GeopotentialHeight_IsbL-1000_LatLon0.15_PT099H.grib2 2026-04-11 16:45 787K
20260411T12Z_MSC_GDPS_GeopotentialHeight_IsbL-1015_LatLon0.15_PT099H.grib2 2026-04-11 16:45 810K
20260411T12Z_MSC_GDPS_Humidex_Sfc_LatLon0.15_PT099H.grib2 2026-04-11 16:45 5.3M
20260411T12Z_MSC_GDPS_IcePellets-Accum1h_Sfc_LatLon0.15_PT099H.grib2 2026-04-11 16:45 11K
20260411T12Z_MSC_GDPS_IcePellets-Accum3h_Sfc_LatLon0.15_PT099H.grib2 2026-04-11 16:45 15K
20260411T12Z_MSC_GDPS_IcePellets-Accum_Sfc_LatLon0.15_PT099H.grib2 2026-04-11 16:45 108K
20260411T12Z_MSC_GDPS_KIndex_Sfc_LatLon0.15_PT099H.grib2 2026-04-11 16:45 6.5M
20260411T12Z_MSC_GDPS_LatentHeatNetFlux_Sfc_LatLon0.15_PT099H.grib2 2026-04-11 16:45 519K
20260411T12Z_MSC_GDPS_LiftedIndex-MU-VT_IsbL-0500_LatLon0.15_PT099H.grib2 2026-04-11 16:45 5.4M
20260411T12Z_MSC_GDPS_NetLongwaveRadiationFlux-Accum_Sfc_LatLon0.15_PT099H.grib2 2026-04-11 16:45 962K
20260411T12Z_MSC_GDPS_NetShortwaveRadiationFlux-Accum_Sfc_LatLon0.15_PT099H.grib2 2026-04-11 16:45 952K
20260411T12Z_MSC_GDPS_O3MixingRatio_LatLon0.15_PT099H.grib2 2026-04-11 17:06 2.3M
20260411T12Z_MSC_GDPS_O3_EAtm_LatLon0.15_PT099H.grib2 2026-04-11 17:06 2.1M
20260411T12Z_MSC_GDPS_PlanetaryBoundaryLayerHeight_Sfc_LatLon0.15_PT099H.grib2 2026-04-11 16:45 2.5M
20260411T12Z_MSC_GDPS_Precip-Accum1h_Sfc_LatLon0.15_PT099H.grib2 2026-04-11 16:45 3.2M
20260411T12Z_MSC_GDPS_Precip-Accum3h_Sfc_LatLon0.15_PT099H.grib2 2026-04-11 16:45 3.5M
20260411T12Z_MSC_GDPS_Precip-Accum_Sfc_LatLon0.15_PT099H.grib2 2026-04-11 16:45 4.9M
20260411T12Z_MSC_GDPS_PrecipRate_Sfc_LatLon0.15_PT099H.grib2 2026-04-11 16:45 3.1M
20260411T12Z_MSC_GDPS_PrecipType-Instant_Sfc_LatLon0.15_PT099H.grib2 2026-04-11 16:45 1.6M
20260411T12Z_MSC_GDPS_Pressure_MSL_LatLon0.15_PT099H.grib2 2026-04-11 16:45 822K
20260411T12Z_MSC_GDPS_Pressure_PVU-1.5_LatLon0.15_PT099H.grib2 2026-04-11 16:45 5.8M
20260411T12Z_MSC_GDPS_Pressure_PVU-1_LatLon0.15_PT099H.grib2 2026-04-11 16:45 6.0M
20260411T12Z_MSC_GDPS_Pressure_PVU-2_LatLon0.15_PT099H.grib2 2026-04-11 16:45 5.6M
20260411T12Z_MSC_GDPS_Pressure_Sfc_LatLon0.15_PT099H.grib2 2026-04-11 16:45 1.1M
20260411T12Z_MSC_GDPS_RadiativeTemp_Sfc_LatLon0.15_PT099H.grib2 2026-04-11 16:45 674K
20260411T12Z_MSC_GDPS_Rain-Accum1h_Sfc_LatLon0.15_PT099H.grib2 2026-04-11 16:45 1.7M
20260411T12Z_MSC_GDPS_Rain-Accum3h_Sfc_LatLon0.15_PT099H.grib2 2026-04-11 16:45 1.9M
20260411T12Z_MSC_GDPS_Rain-Accum_Sfc_LatLon0.15_PT099H.grib2 2026-04-11 16:45 3.7M
20260411T12Z_MSC_GDPS_RelativeHumidity_AGL-2m_LatLon0.15_PT099H.grib2 2026-04-11 16:45 1.0M
20260411T12Z_MSC_GDPS_RelativeHumidity_IsbL-0010_LatLon0.15_PT099H.grib2 2026-04-11 16:45 248K
20260411T12Z_MSC_GDPS_RelativeHumidity_IsbL-0020_LatLon0.15_PT099H.grib2 2026-04-11 16:45 372K
20260411T12Z_MSC_GDPS_RelativeHumidity_IsbL-0030_LatLon0.15_PT099H.grib2 2026-04-11 16:45 380K
20260411T12Z_MSC_GDPS_RelativeHumidity_IsbL-0050_LatLon0.15_PT099H.grib2 2026-04-11 16:45 324K
20260411T12Z_MSC_GDPS_RelativeHumidity_IsbL-0100_LatLon0.15_PT099H.grib2 2026-04-11 16:45 495K
20260411T12Z_MSC_GDPS_RelativeHumidity_IsbL-0150_LatLon0.15_PT099H.grib2 2026-04-11 16:45 648K
20260411T12Z_MSC_GDPS_RelativeHumidity_IsbL-0175_LatLon0.15_PT099H.grib2 2026-04-11 16:45 773K
20260411T12Z_MSC_GDPS_RelativeHumidity_IsbL-0200_LatLon0.15_PT099H.grib2 2026-04-11 16:45 685K
20260411T12Z_MSC_GDPS_RelativeHumidity_IsbL-0225_LatLon0.15_PT099H.grib2 2026-04-11 16:45 781K
20260411T12Z_MSC_GDPS_RelativeHumidity_IsbL-0250_LatLon0.15_PT099H.grib2 2026-04-11 16:45 866K
20260411T12Z_MSC_GDPS_RelativeHumidity_IsbL-0275_LatLon0.15_PT099H.grib2 2026-04-11 16:45 891K
20260411T12Z_MSC_GDPS_RelativeHumidity_IsbL-0300_LatLon0.15_PT099H.grib2 2026-04-11 16:45 938K
20260411T12Z_MSC_GDPS_RelativeHumidity_IsbL-0350_LatLon0.15_PT099H.grib2 2026-04-11 16:45 965K
20260411T12Z_MSC_GDPS_RelativeHumidity_IsbL-0400_LatLon0.15_PT099H.grib2 2026-04-11 16:45 1.0M
20260411T12Z_MSC_GDPS_RelativeHumidity_IsbL-0450_LatLon0.15_PT099H.grib2 2026-04-11 16:45 1.0M
20260411T12Z_MSC_GDPS_RelativeHumidity_IsbL-0500_LatLon0.15_PT099H.grib2 2026-04-11 16:45 1.0M
20260411T12Z_MSC_GDPS_RelativeHumidity_IsbL-0550_LatLon0.15_PT099H.grib2 2026-04-11 16:45 1.0M
20260411T12Z_MSC_GDPS_RelativeHumidity_IsbL-0600_LatLon0.15_PT099H.grib2 2026-04-11 16:45 1.1M
20260411T12Z_MSC_GDPS_RelativeHumidity_IsbL-0650_LatLon0.15_PT099H.grib2 2026-04-11 16:45 1.1M
20260411T12Z_MSC_GDPS_RelativeHumidity_IsbL-0700_LatLon0.15_PT099H.grib2 2026-04-11 16:45 1.1M
20260411T12Z_MSC_GDPS_RelativeHumidity_IsbL-0750_LatLon0.15_PT099H.grib2 2026-04-11 16:45 1.2M
20260411T12Z_MSC_GDPS_RelativeHumidity_IsbL-0800_LatLon0.15_PT099H.grib2 2026-04-11 16:45 1.3M
20260411T12Z_MSC_GDPS_RelativeHumidity_IsbL-0850_LatLon0.15_PT099H.grib2 2026-04-11 16:45 1.3M
20260411T12Z_MSC_GDPS_RelativeHumidity_IsbL-0875_LatLon0.15_PT099H.grib2 2026-04-11 16:45 1.3M
20260411T12Z_MSC_GDPS_RelativeHumidity_IsbL-0900_LatLon0.15_PT099H.grib2 2026-04-11 16:45 1.2M
20260411T12Z_MSC_GDPS_RelativeHumidity_IsbL-0925_LatLon0.15_PT099H.grib2 2026-04-11 16:45 1.2M
20260411T12Z_MSC_GDPS_RelativeHumidity_IsbL-0950_LatLon0.15_PT099H.grib2 2026-04-11 16:45 1.2M
20260411T12Z_MSC_GDPS_RelativeHumidity_IsbL-0970_LatLon0.15_PT099H.grib2 2026-04-11 16:45 1.2M
20260411T12Z_MSC_GDPS_RelativeHumidity_IsbL-0985_LatLon0.15_PT099H.grib2 2026-04-11 16:45 1.2M
20260411T12Z_MSC_GDPS_RelativeHumidity_IsbL-1000_LatLon0.15_PT099H.grib2 2026-04-11 16:45 1.1M
20260411T12Z_MSC_GDPS_RelativeHumidity_IsbL-1015_LatLon0.15_PT099H.grib2 2026-04-11 16:45 1.1M
20260411T12Z_MSC_GDPS_RelativeVorticity_IsbL-0200_LatLon0.15_PT099H.grib2 2026-04-11 16:45 1.5M
20260411T12Z_MSC_GDPS_RelativeVorticity_IsbL-0250_LatLon0.15_PT099H.grib2 2026-04-11 16:45 1.3M
20260411T12Z_MSC_GDPS_RelativeVorticity_IsbL-0500_LatLon0.15_PT099H.grib2 2026-04-11 16:45 1.4M
20260411T12Z_MSC_GDPS_RelativeVorticity_IsbL-0700_LatLon0.15_PT099H.grib2 2026-04-11 16:45 1.3M
20260411T12Z_MSC_GDPS_RelativeVorticity_IsbL-0850_LatLon0.15_PT099H.grib2 2026-04-11 16:45 1.6M
20260411T12Z_MSC_GDPS_Runoff-Accum_Sfc_LatLon0.15_PT099H.grib2 2026-04-11 16:45 104K
20260411T12Z_MSC_GDPS_SensibleHeatNetFlux_Sfc_LatLon0.15_PT099H.grib2 2026-04-11 16:45 467K
20260411T12Z_MSC_GDPS_ShowalterIndex_IsbL-0500_LatLon0.15_PT099H.grib2 2026-04-11 16:45 6.2M
20260411T12Z_MSC_GDPS_Snow-Accum1h_Sfc_LatLon0.15_PT099H.grib2 2026-04-11 16:45 1.0M
20260411T12Z_MSC_GDPS_Snow-Accum3h_Sfc_LatLon0.15_PT099H.grib2 2026-04-11 16:45 1.1M
20260411T12Z_MSC_GDPS_Snow-Accum_Sfc_LatLon0.15_PT099H.grib2 2026-04-11 16:45 1.9M
20260411T12Z_MSC_GDPS_SnowDensity_Sfc_LatLon0.15_PT099H.grib2 2026-04-11 16:45 270K
20260411T12Z_MSC_GDPS_SnowDepth_Sfc_LatLon0.15_PT099H.grib2 2026-04-11 16:45 1.8M
20260411T12Z_MSC_GDPS_SoilTemp_DBS-0to10cm_LatLon0.15_PT099H.grib2 2026-04-11 16:45 510K
20260411T12Z_MSC_GDPS_SoilTemp_Sfc_LatLon0.15_PT099H.grib2 2026-04-11 16:45 578K
20260411T12Z_MSC_GDPS_SoilVolumetricIceContent_Sfc_LatLon0.15_PT099H.grib2 2026-04-11 16:45 225K
20260411T12Z_MSC_GDPS_SoilVolumetricWaterContent_DBS-0to10cm_LatLon0.15_PT099H.grib2 2026-04-11 16:45 551K
20260411T12Z_MSC_GDPS_SoilVolumetricWaterContent_DBS-0to1cm_LatLon0.15_PT099H.grib2 2026-04-11 16:45 649K
20260411T12Z_MSC_GDPS_SpecificHumidity_AGL-120m_LatLon0.15_PT099H.grib2 2026-04-11 16:45 1.1M
20260411T12Z_MSC_GDPS_SpecificHumidity_AGL-2m_LatLon0.15_PT099H.grib2 2026-04-11 16:45 1.2M
20260411T12Z_MSC_GDPS_SpecificHumidity_AGL-40m_LatLon0.15_PT099H.grib2 2026-04-11 16:45 1.1M
20260411T12Z_MSC_GDPS_SpecificHumidity_AGL-80m_LatLon0.15_PT099H.grib2 2026-04-11 16:45 1.1M
20260411T12Z_MSC_GDPS_SpecificHumidity_IsbL-0001_LatLon0.15_PT099H.grib2 2026-04-11 16:45 1.1M
20260411T12Z_MSC_GDPS_SpecificHumidity_IsbL-0005_LatLon0.15_PT099H.grib2 2026-04-11 16:45 1.1M
20260411T12Z_MSC_GDPS_SpecificHumidity_IsbL-0010_LatLon0.15_PT099H.grib2 2026-04-11 16:45 1.2M
20260411T12Z_MSC_GDPS_SpecificHumidity_IsbL-0020_LatLon0.15_PT099H.grib2 2026-04-11 16:45 1.3M
20260411T12Z_MSC_GDPS_SpecificHumidity_IsbL-0030_LatLon0.15_PT099H.grib2 2026-04-11 16:45 1.3M
20260411T12Z_MSC_GDPS_SpecificHumidity_IsbL-0050_LatLon0.15_PT099H.grib2 2026-04-11 16:45 1.3M
20260411T12Z_MSC_GDPS_SpecificHumidity_IsbL-0100_LatLon0.15_PT099H.grib2 2026-04-11 16:45 1.3M
20260411T12Z_MSC_GDPS_SpecificHumidity_IsbL-0150_LatLon0.15_PT099H.grib2 2026-04-11 16:45 1.3M
20260411T12Z_MSC_GDPS_SpecificHumidity_IsbL-0175_LatLon0.15_PT099H.grib2 2026-04-11 16:45 1.0M
20260411T12Z_MSC_GDPS_SpecificHumidity_IsbL-0200_LatLon0.15_PT099H.grib2 2026-04-11 16:45 1.1M
20260411T12Z_MSC_GDPS_SpecificHumidity_IsbL-0225_LatLon0.15_PT099H.grib2 2026-04-11 16:45 1.2M
20260411T12Z_MSC_GDPS_SpecificHumidity_IsbL-0250_LatLon0.15_PT099H.grib2 2026-04-11 16:45 1.2M
20260411T12Z_MSC_GDPS_SpecificHumidity_IsbL-0275_LatLon0.15_PT099H.grib2 2026-04-11 16:45 1.1M
20260411T12Z_MSC_GDPS_SpecificHumidity_IsbL-0300_LatLon0.15_PT099H.grib2 2026-04-11 16:45 1.2M
20260411T12Z_MSC_GDPS_SpecificHumidity_IsbL-0350_LatLon0.15_PT099H.grib2 2026-04-11 16:45 1.2M
20260411T12Z_MSC_GDPS_SpecificHumidity_IsbL-0400_LatLon0.15_PT099H.grib2 2026-04-11 16:45 1.4M
20260411T12Z_MSC_GDPS_SpecificHumidity_IsbL-0450_LatLon0.15_PT099H.grib2 2026-04-11 16:45 1.3M
20260411T12Z_MSC_GDPS_SpecificHumidity_IsbL-0500_LatLon0.15_PT099H.grib2 2026-04-11 16:45 1.5M
20260411T12Z_MSC_GDPS_SpecificHumidity_IsbL-0550_LatLon0.15_PT099H.grib2 2026-04-11 16:45 1.3M
20260411T12Z_MSC_GDPS_SpecificHumidity_IsbL-0600_LatLon0.15_PT099H.grib2 2026-04-11 16:45 1.4M
20260411T12Z_MSC_GDPS_SpecificHumidity_IsbL-0650_LatLon0.15_PT099H.grib2 2026-04-11 16:45 1.5M
20260411T12Z_MSC_GDPS_SpecificHumidity_IsbL-0700_LatLon0.15_PT099H.grib2 2026-04-11 16:45 1.6M
20260411T12Z_MSC_GDPS_SpecificHumidity_IsbL-0750_LatLon0.15_PT099H.grib2 2026-04-11 16:45 1.7M
20260411T12Z_MSC_GDPS_SpecificHumidity_IsbL-0800_LatLon0.15_PT099H.grib2 2026-04-11 16:45 1.8M
20260411T12Z_MSC_GDPS_SpecificHumidity_IsbL-0850_LatLon0.15_PT099H.grib2 2026-04-11 16:45 1.9M
20260411T12Z_MSC_GDPS_SpecificHumidity_IsbL-0875_LatLon0.15_PT099H.grib2 2026-04-11 16:45 1.9M
20260411T12Z_MSC_GDPS_SpecificHumidity_IsbL-0900_LatLon0.15_PT099H.grib2 2026-04-11 16:45 1.9M
20260411T12Z_MSC_GDPS_SpecificHumidity_IsbL-0925_LatLon0.15_PT099H.grib2 2026-04-11 16:45 1.6M
20260411T12Z_MSC_GDPS_SpecificHumidity_IsbL-0950_LatLon0.15_PT099H.grib2 2026-04-11 16:45 1.5M
20260411T12Z_MSC_GDPS_SpecificHumidity_IsbL-0970_LatLon0.15_PT099H.grib2 2026-04-11 16:45 1.5M
20260411T12Z_MSC_GDPS_SpecificHumidity_IsbL-0985_LatLon0.15_PT099H.grib2 2026-04-11 16:45 1.5M
20260411T12Z_MSC_GDPS_SpecificHumidity_IsbL-1000_LatLon0.15_PT099H.grib2 2026-04-11 16:45 1.5M
20260411T12Z_MSC_GDPS_SpecificHumidity_IsbL-1015_LatLon0.15_PT099H.grib2 2026-04-11 16:45 1.4M
20260411T12Z_MSC_GDPS_SpecificHumidity_Sfc_LatLon0.15_PT099H.grib2 2026-04-11 16:45 665K
20260411T12Z_MSC_GDPS_Thickness_IsbL-0850to0700_LatLon0.15_PT099H.grib2 2026-04-11 16:45 467K
20260411T12Z_MSC_GDPS_Thickness_IsbL-1000to0500_LatLon0.15_PT099H.grib2 2026-04-11 16:45 372K
20260411T12Z_MSC_GDPS_Thickness_IsbL-1000to0850_LatLon0.15_PT099H.grib2 2026-04-11 16:45 491K
20260411T12Z_MSC_GDPS_TotalCloudCover_Sfc_LatLon0.15_PT099H.grib2 2026-04-11 16:45 822K
20260411T12Z_MSC_GDPS_TotalTotalsIndex_Sfc_LatLon0.15_PT099H.grib2 2026-04-11 16:45 6.2M
20260411T12Z_MSC_GDPS_UVIndex-ClearSky_Sfc_LatLon0.15_PT099H.grib2 2026-04-11 17:06 1.0M
20260411T12Z_MSC_GDPS_UVIndex_Sfc_LatLon0.15_PT099H.grib2 2026-04-11 17:06 1.4M
20260411T12Z_MSC_GDPS_UpwardLongwaveRadiationFlux_NTAtm_LatLon0.15_PT099H.grib2 2026-04-11 16:45 836K
20260411T12Z_MSC_GDPS_VerticalVelocity_IsbL-0200_LatLon0.15_PT099H.grib2 2026-04-11 16:45 1.2M
20260411T12Z_MSC_GDPS_VerticalVelocity_IsbL-0250_LatLon0.15_PT099H.grib2 2026-04-11 16:45 1.0M
20260411T12Z_MSC_GDPS_VerticalVelocity_IsbL-0500_LatLon0.15_PT099H.grib2 2026-04-11 16:45 1.0M
20260411T12Z_MSC_GDPS_VerticalVelocity_IsbL-0600_LatLon0.15_PT099H.grib2 2026-04-11 16:45 1.1M
20260411T12Z_MSC_GDPS_VerticalVelocity_IsbL-0700_LatLon0.15_PT099H.grib2 2026-04-11 16:45 1.1M
20260411T12Z_MSC_GDPS_VerticalVelocity_IsbL-0850_LatLon0.15_PT099H.grib2 2026-04-11 16:45 1.6M
20260411T12Z_MSC_GDPS_WindChill_Sfc_LatLon0.15_PT099H.grib2 2026-04-11 16:45 5.4M
20260411T12Z_MSC_GDPS_WindDir_AGL-10m_LatLon0.15_PT099H.grib2 2026-04-11 16:45 1.3M
20260411T12Z_MSC_GDPS_WindDir_AGL-120m_LatLon0.15_PT099H.grib2 2026-04-11 16:45 1.4M
20260411T12Z_MSC_GDPS_WindDir_AGL-40m_LatLon0.15_PT099H.grib2 2026-04-11 16:45 1.4M
20260411T12Z_MSC_GDPS_WindDir_AGL-80m_LatLon0.15_PT099H.grib2 2026-04-11 16:45 1.4M
20260411T12Z_MSC_GDPS_WindDir_IsbL-0001_LatLon0.15_PT099H.grib2 2026-04-11 16:45 632K
20260411T12Z_MSC_GDPS_WindDir_IsbL-0005_LatLon0.15_PT099H.grib2 2026-04-11 16:45 779K
20260411T12Z_MSC_GDPS_WindDir_IsbL-0010_LatLon0.15_PT099H.grib2 2026-04-11 16:45 853K
20260411T12Z_MSC_GDPS_WindDir_IsbL-0020_LatLon0.15_PT099H.grib2 2026-04-11 16:45 927K
20260411T12Z_MSC_GDPS_WindDir_IsbL-0030_LatLon0.15_PT099H.grib2 2026-04-11 16:45 885K
20260411T12Z_MSC_GDPS_WindDir_IsbL-0050_LatLon0.15_PT099H.grib2 2026-04-11 16:45 943K
20260411T12Z_MSC_GDPS_WindDir_IsbL-0100_LatLon0.15_PT099H.grib2 2026-04-11 16:45 1.0M
20260411T12Z_MSC_GDPS_WindDir_IsbL-0150_LatLon0.15_PT099H.grib2 2026-04-11 16:45 1.0M
20260411T12Z_MSC_GDPS_WindDir_IsbL-0175_LatLon0.15_PT099H.grib2 2026-04-11 16:45 1.0M
20260411T12Z_MSC_GDPS_WindDir_IsbL-0200_LatLon0.15_PT099H.grib2 2026-04-11 16:45 1.1M
20260411T12Z_MSC_GDPS_WindDir_IsbL-0225_LatLon0.15_PT099H.grib2 2026-04-11 16:45 1.1M
20260411T12Z_MSC_GDPS_WindDir_IsbL-0250_LatLon0.15_PT099H.grib2 2026-04-11 16:45 1.1M
20260411T12Z_MSC_GDPS_WindDir_IsbL-0275_LatLon0.15_PT099H.grib2 2026-04-11 16:45 1.2M
20260411T12Z_MSC_GDPS_WindDir_IsbL-0300_LatLon0.15_PT099H.grib2 2026-04-11 16:45 1.2M
20260411T12Z_MSC_GDPS_WindDir_IsbL-0350_LatLon0.15_PT099H.grib2 2026-04-11 16:45 1.2M
20260411T12Z_MSC_GDPS_WindDir_IsbL-0400_LatLon0.15_PT099H.grib2 2026-04-11 16:45 1.3M
20260411T12Z_MSC_GDPS_WindDir_IsbL-0450_LatLon0.15_PT099H.grib2 2026-04-11 16:45 1.3M
20260411T12Z_MSC_GDPS_WindDir_IsbL-0500_LatLon0.15_PT099H.grib2 2026-04-11 16:45 1.3M
20260411T12Z_MSC_GDPS_WindDir_IsbL-0550_LatLon0.15_PT099H.grib2 2026-04-11 16:45 1.4M
20260411T12Z_MSC_GDPS_WindDir_IsbL-0600_LatLon0.15_PT099H.grib2 2026-04-11 16:45 1.5M
20260411T12Z_MSC_GDPS_WindDir_IsbL-0650_LatLon0.15_PT099H.grib2 2026-04-11 16:45 1.5M
20260411T12Z_MSC_GDPS_WindDir_IsbL-0700_LatLon0.15_PT099H.grib2 2026-04-11 16:45 1.6M
20260411T12Z_MSC_GDPS_WindDir_IsbL-0750_LatLon0.15_PT099H.grib2 2026-04-11 16:45 1.7M
20260411T12Z_MSC_GDPS_WindDir_IsbL-0800_LatLon0.15_PT099H.grib2 2026-04-11 16:45 1.8M
20260411T12Z_MSC_GDPS_WindDir_IsbL-0850_LatLon0.15_PT099H.grib2 2026-04-11 16:45 1.9M
20260411T12Z_MSC_GDPS_WindDir_IsbL-0875_LatLon0.15_PT099H.grib2 2026-04-11 16:45 2.0M
20260411T12Z_MSC_GDPS_WindDir_IsbL-0900_LatLon0.15_PT099H.grib2 2026-04-11 16:45 2.0M
20260411T12Z_MSC_GDPS_WindDir_IsbL-0925_LatLon0.15_PT099H.grib2 2026-04-11 16:45 2.0M
20260411T12Z_MSC_GDPS_WindDir_IsbL-0950_LatLon0.15_PT099H.grib2 2026-04-11 16:45 2.0M
20260411T12Z_MSC_GDPS_WindDir_IsbL-0970_LatLon0.15_PT099H.grib2 2026-04-11 16:45 2.0M
20260411T12Z_MSC_GDPS_WindDir_IsbL-0985_LatLon0.15_PT099H.grib2 2026-04-11 16:45 2.0M
20260411T12Z_MSC_GDPS_WindDir_IsbL-1000_LatLon0.15_PT099H.grib2 2026-04-11 16:45 2.1M
20260411T12Z_MSC_GDPS_WindDir_IsbL-1015_LatLon0.15_PT099H.grib2 2026-04-11 16:45 2.1M
20260411T12Z_MSC_GDPS_WindGust-Max_AGL-10m_LatLon0.15_PT099H.grib2 2026-04-11 16:45 2.2M
20260411T12Z_MSC_GDPS_WindGust-Min_AGL-10m_LatLon0.15_PT099H.grib2 2026-04-11 16:45 2.2M
20260411T12Z_MSC_GDPS_WindGust_AGL-10m_LatLon0.15_PT099H.grib2 2026-04-11 16:45 2.1M
20260411T12Z_MSC_GDPS_WindSpeed_AGL-10m_LatLon0.15_PT099H.grib2 2026-04-11 16:45 1.1M
20260411T12Z_MSC_GDPS_WindSpeed_AGL-120m_LatLon0.15_PT099H.grib2 2026-04-11 16:45 1.2M
20260411T12Z_MSC_GDPS_WindSpeed_AGL-40m_LatLon0.15_PT099H.grib2 2026-04-11 16:45 1.2M
20260411T12Z_MSC_GDPS_WindSpeed_AGL-80m_LatLon0.15_PT099H.grib2 2026-04-11 16:45 1.2M
20260411T12Z_MSC_GDPS_WindSpeed_IsbL-0001_LatLon0.15_PT099H.grib2 2026-04-11 16:45 635K
20260411T12Z_MSC_GDPS_WindSpeed_IsbL-0005_LatLon0.15_PT099H.grib2 2026-04-11 16:45 680K
20260411T12Z_MSC_GDPS_WindSpeed_IsbL-0010_LatLon0.15_PT099H.grib2 2026-04-11 16:45 622K
20260411T12Z_MSC_GDPS_WindSpeed_IsbL-0020_LatLon0.15_PT099H.grib2 2026-04-11 16:45 860K
20260411T12Z_MSC_GDPS_WindSpeed_IsbL-0030_LatLon0.15_PT099H.grib2 2026-04-11 16:45 854K
20260411T12Z_MSC_GDPS_WindSpeed_IsbL-0050_LatLon0.15_PT099H.grib2 2026-04-11 16:45 912K
20260411T12Z_MSC_GDPS_WindSpeed_IsbL-0100_LatLon0.15_PT099H.grib2 2026-04-11 16:45 1.1M
20260411T12Z_MSC_GDPS_WindSpeed_IsbL-0150_LatLon0.15_PT099H.grib2 2026-04-11 16:45 1.0M
20260411T12Z_MSC_GDPS_WindSpeed_IsbL-0175_LatLon0.15_PT099H.grib2 2026-04-11 16:45 1.0M
20260411T12Z_MSC_GDPS_WindSpeed_IsbL-0200_LatLon0.15_PT099H.grib2 2026-04-11 16:45 1.0M
20260411T12Z_MSC_GDPS_WindSpeed_IsbL-0225_LatLon0.15_PT099H.grib2 2026-04-11 16:45 1.1M
20260411T12Z_MSC_GDPS_WindSpeed_IsbL-0250_LatLon0.15_PT099H.grib2 2026-04-11 16:45 1.1M
20260411T12Z_MSC_GDPS_WindSpeed_IsbL-0275_LatLon0.15_PT099H.grib2 2026-04-11 16:45 1.1M
20260411T12Z_MSC_GDPS_WindSpeed_IsbL-0300_LatLon0.15_PT099H.grib2 2026-04-11 16:45 1.1M
20260411T12Z_MSC_GDPS_WindSpeed_IsbL-0350_LatLon0.15_PT099H.grib2 2026-04-11 16:45 1.1M
20260411T12Z_MSC_GDPS_WindSpeed_IsbL-0400_LatLon0.15_PT099H.grib2 2026-04-11 16:45 1.1M
20260411T12Z_MSC_GDPS_WindSpeed_IsbL-0450_LatLon0.15_PT099H.grib2 2026-04-11 16:45 1.1M
20260411T12Z_MSC_GDPS_WindSpeed_IsbL-0500_LatLon0.15_PT099H.grib2 2026-04-11 16:45 1.1M
20260411T12Z_MSC_GDPS_WindSpeed_IsbL-0550_LatLon0.15_PT099H.grib2 2026-04-11 16:45 1.1M
20260411T12Z_MSC_GDPS_WindSpeed_IsbL-0600_LatLon0.15_PT099H.grib2 2026-04-11 16:45 1.4M
20260411T12Z_MSC_GDPS_WindSpeed_IsbL-0650_LatLon0.15_PT099H.grib2 2026-04-11 16:45 1.4M
20260411T12Z_MSC_GDPS_WindSpeed_IsbL-0700_LatLon0.15_PT099H.grib2 2026-04-11 16:45 1.5M
20260411T12Z_MSC_GDPS_WindSpeed_IsbL-0750_LatLon0.15_PT099H.grib2 2026-04-11 16:45 1.6M
20260411T12Z_MSC_GDPS_WindSpeed_IsbL-0800_LatLon0.15_PT099H.grib2 2026-04-11 16:45 1.6M
20260411T12Z_MSC_GDPS_WindSpeed_IsbL-0850_LatLon0.15_PT099H.grib2 2026-04-11 16:45 1.7M
20260411T12Z_MSC_GDPS_WindSpeed_IsbL-0875_LatLon0.15_PT099H.grib2 2026-04-11 16:45 1.8M
20260411T12Z_MSC_GDPS_WindSpeed_IsbL-0900_LatLon0.15_PT099H.grib2 2026-04-11 16:45 1.8M
20260411T12Z_MSC_GDPS_WindSpeed_IsbL-0925_LatLon0.15_PT099H.grib2 2026-04-11 16:45 1.8M
20260411T12Z_MSC_GDPS_WindSpeed_IsbL-0950_LatLon0.15_PT099H.grib2 2026-04-11 16:45 1.9M
20260411T12Z_MSC_GDPS_WindSpeed_IsbL-0970_LatLon0.15_PT099H.grib2 2026-04-11 16:45 1.9M
20260411T12Z_MSC_GDPS_WindSpeed_IsbL-0985_LatLon0.15_PT099H.grib2 2026-04-11 16:45 1.9M
20260411T12Z_MSC_GDPS_WindSpeed_IsbL-1000_LatLon0.15_PT099H.grib2 2026-04-11 16:45 1.9M
20260411T12Z_MSC_GDPS_WindSpeed_IsbL-1015_LatLon0.15_PT099H.grib2 2026-04-11 16:45 1.8M
20260411T12Z_MSC_GDPS_WindU_AGL-10m_LatLon0.15_PT099H.grib2 2026-04-11 16:45 1.3M
20260411T12Z_MSC_GDPS_WindU_AGL-120m_LatLon0.15_PT099H.grib2 2026-04-11 16:45 1.0M
20260411T12Z_MSC_GDPS_WindU_AGL-40m_LatLon0.15_PT099H.grib2 2026-04-11 16:45 971K
20260411T12Z_MSC_GDPS_WindU_AGL-80m_LatLon0.15_PT099H.grib2 2026-04-11 16:45 1.0M
20260411T12Z_MSC_GDPS_WindU_IsbL-0001_LatLon0.15_PT099H.grib2 2026-04-11 16:45 497K
20260411T12Z_MSC_GDPS_WindU_IsbL-0005_LatLon0.15_PT099H.grib2 2026-04-11 16:45 681K
20260411T12Z_MSC_GDPS_WindU_IsbL-0010_LatLon0.15_PT099H.grib2 2026-04-11 16:45 696K
20260411T12Z_MSC_GDPS_WindU_IsbL-0020_LatLon0.15_PT099H.grib2 2026-04-11 16:45 734K
20260411T12Z_MSC_GDPS_WindU_IsbL-0030_LatLon0.15_PT099H.grib2 2026-04-11 16:45 734K
20260411T12Z_MSC_GDPS_WindU_IsbL-0050_LatLon0.15_PT099H.grib2 2026-04-11 16:45 703K
20260411T12Z_MSC_GDPS_WindU_IsbL-0100_LatLon0.15_PT099H.grib2 2026-04-11 16:45 924K
20260411T12Z_MSC_GDPS_WindU_IsbL-0150_LatLon0.15_PT099H.grib2 2026-04-11 16:45 1.0M
20260411T12Z_MSC_GDPS_WindU_IsbL-0175_LatLon0.15_PT099H.grib2 2026-04-11 16:45 1.0M
20260411T12Z_MSC_GDPS_WindU_IsbL-0200_LatLon0.15_PT099H.grib2 2026-04-11 16:45 840K
20260411T12Z_MSC_GDPS_WindU_IsbL-0225_LatLon0.15_PT099H.grib2 2026-04-11 16:45 852K
20260411T12Z_MSC_GDPS_WindU_IsbL-0250_LatLon0.15_PT099H.grib2 2026-04-11 16:45 857K
20260411T12Z_MSC_GDPS_WindU_IsbL-0275_LatLon0.15_PT099H.grib2 2026-04-11 16:45 884K
20260411T12Z_MSC_GDPS_WindU_IsbL-0300_LatLon0.15_PT099H.grib2 2026-04-11 16:45 875K
20260411T12Z_MSC_GDPS_WindU_IsbL-0350_LatLon0.15_PT099H.grib2 2026-04-11 16:45 888K
20260411T12Z_MSC_GDPS_WindU_IsbL-0400_LatLon0.15_PT099H.grib2 2026-04-11 16:45 885K
20260411T12Z_MSC_GDPS_WindU_IsbL-0450_LatLon0.15_PT099H.grib2 2026-04-11 16:45 1.1M
20260411T12Z_MSC_GDPS_WindU_IsbL-0500_LatLon0.15_PT099H.grib2 2026-04-11 16:45 1.1M
20260411T12Z_MSC_GDPS_WindU_IsbL-0550_LatLon0.15_PT099H.grib2 2026-04-11 16:45 1.1M
20260411T12Z_MSC_GDPS_WindU_IsbL-0600_LatLon0.15_PT099H.grib2 2026-04-11 16:45 1.1M
20260411T12Z_MSC_GDPS_WindU_IsbL-0650_LatLon0.15_PT099H.grib2 2026-04-11 16:45 1.2M
20260411T12Z_MSC_GDPS_WindU_IsbL-0700_LatLon0.15_PT099H.grib2 2026-04-11 16:45 1.2M
20260411T12Z_MSC_GDPS_WindU_IsbL-0750_LatLon0.15_PT099H.grib2 2026-04-11 16:45 1.3M
20260411T12Z_MSC_GDPS_WindU_IsbL-0800_LatLon0.15_PT099H.grib2 2026-04-11 16:45 1.4M
20260411T12Z_MSC_GDPS_WindU_IsbL-0850_LatLon0.15_PT099H.grib2 2026-04-11 16:45 1.4M
20260411T12Z_MSC_GDPS_WindU_IsbL-0875_LatLon0.15_PT099H.grib2 2026-04-11 16:45 1.5M
20260411T12Z_MSC_GDPS_WindU_IsbL-0900_LatLon0.15_PT099H.grib2 2026-04-11 16:45 1.5M
20260411T12Z_MSC_GDPS_WindU_IsbL-0925_LatLon0.15_PT099H.grib2 2026-04-11 16:45 1.5M
20260411T12Z_MSC_GDPS_WindU_IsbL-0950_LatLon0.15_PT099H.grib2 2026-04-11 16:45 1.4M
20260411T12Z_MSC_GDPS_WindU_IsbL-0970_LatLon0.15_PT099H.grib2 2026-04-11 16:45 1.4M
20260411T12Z_MSC_GDPS_WindU_IsbL-0985_LatLon0.15_PT099H.grib2 2026-04-11 16:45 1.4M
20260411T12Z_MSC_GDPS_WindU_IsbL-1000_LatLon0.15_PT099H.grib2 2026-04-11 16:45 1.4M
20260411T12Z_MSC_GDPS_WindU_IsbL-1015_LatLon0.15_PT099H.grib2 2026-04-11 16:45 1.4M
20260411T12Z_MSC_GDPS_WindV_AGL-10m_LatLon0.15_PT099H.grib2 2026-04-11 16:45 1.3M
20260411T12Z_MSC_GDPS_WindV_AGL-120m_LatLon0.15_PT099H.grib2 2026-04-11 16:45 1.0M
20260411T12Z_MSC_GDPS_WindV_AGL-40m_LatLon0.15_PT099H.grib2 2026-04-11 16:45 971K
20260411T12Z_MSC_GDPS_WindV_AGL-80m_LatLon0.15_PT099H.grib2 2026-04-11 16:45 1.0M
20260411T12Z_MSC_GDPS_WindV_IsbL-0001_LatLon0.15_PT099H.grib2 2026-04-11 16:45 544K
20260411T12Z_MSC_GDPS_WindV_IsbL-0005_LatLon0.15_PT099H.grib2 2026-04-11 16:45 602K
20260411T12Z_MSC_GDPS_WindV_IsbL-0010_LatLon0.15_PT099H.grib2 2026-04-11 16:45 800K
20260411T12Z_MSC_GDPS_WindV_IsbL-0020_LatLon0.15_PT099H.grib2 2026-04-11 16:45 855K
20260411T12Z_MSC_GDPS_WindV_IsbL-0030_LatLon0.15_PT099H.grib2 2026-04-11 16:45 932K
20260411T12Z_MSC_GDPS_WindV_IsbL-0050_LatLon0.15_PT099H.grib2 2026-04-11 16:45 1.0M
20260411T12Z_MSC_GDPS_WindV_IsbL-0100_LatLon0.15_PT099H.grib2 2026-04-11 16:45 1.1M
20260411T12Z_MSC_GDPS_WindV_IsbL-0150_LatLon0.15_PT099H.grib2 2026-04-11 16:45 1.0M
20260411T12Z_MSC_GDPS_WindV_IsbL-0175_LatLon0.15_PT099H.grib2 2026-04-11 16:45 1.0M
20260411T12Z_MSC_GDPS_WindV_IsbL-0200_LatLon0.15_PT099H.grib2 2026-04-11 16:45 837K
20260411T12Z_MSC_GDPS_WindV_IsbL-0225_LatLon0.15_PT099H.grib2 2026-04-11 16:45 905K
20260411T12Z_MSC_GDPS_WindV_IsbL-0250_LatLon0.15_PT099H.grib2 2026-04-11 16:45 907K
20260411T12Z_MSC_GDPS_WindV_IsbL-0275_LatLon0.15_PT099H.grib2 2026-04-11 16:45 934K
20260411T12Z_MSC_GDPS_WindV_IsbL-0300_LatLon0.15_PT099H.grib2 2026-04-11 16:45 923K
20260411T12Z_MSC_GDPS_WindV_IsbL-0350_LatLon0.15_PT099H.grib2 2026-04-11 16:45 876K
20260411T12Z_MSC_GDPS_WindV_IsbL-0400_LatLon0.15_PT099H.grib2 2026-04-11 16:45 872K
20260411T12Z_MSC_GDPS_WindV_IsbL-0450_LatLon0.15_PT099H.grib2 2026-04-11 16:45 1.1M
20260411T12Z_MSC_GDPS_WindV_IsbL-0500_LatLon0.15_PT099H.grib2 2026-04-11 16:45 1.1M
20260411T12Z_MSC_GDPS_WindV_IsbL-0550_LatLon0.15_PT099H.grib2 2026-04-11 16:45 1.1M
20260411T12Z_MSC_GDPS_WindV_IsbL-0600_LatLon0.15_PT099H.grib2 2026-04-11 16:45 1.1M
20260411T12Z_MSC_GDPS_WindV_IsbL-0650_LatLon0.15_PT099H.grib2 2026-04-11 16:45 1.2M
20260411T12Z_MSC_GDPS_WindV_IsbL-0700_LatLon0.15_PT099H.grib2 2026-04-11 16:45 1.2M
20260411T12Z_MSC_GDPS_WindV_IsbL-0750_LatLon0.15_PT099H.grib2 2026-04-11 16:45 1.3M
20260411T12Z_MSC_GDPS_WindV_IsbL-0800_LatLon0.15_PT099H.grib2 2026-04-11 16:45 1.3M
20260411T12Z_MSC_GDPS_WindV_IsbL-0850_LatLon0.15_PT099H.grib2 2026-04-11 16:45 1.4M
20260411T12Z_MSC_GDPS_WindV_IsbL-0875_LatLon0.15_PT099H.grib2 2026-04-11 16:45 1.4M
20260411T12Z_MSC_GDPS_WindV_IsbL-0900_LatLon0.15_PT099H.grib2 2026-04-11 16:45 1.5M
20260411T12Z_MSC_GDPS_WindV_IsbL-0925_LatLon0.15_PT099H.grib2 2026-04-11 16:45 1.5M
20260411T12Z_MSC_GDPS_WindV_IsbL-0950_LatLon0.15_PT099H.grib2 2026-04-11 16:45 1.4M
20260411T12Z_MSC_GDPS_WindV_IsbL-0970_LatLon0.15_PT099H.grib2 2026-04-11 16:45 1.4M
20260411T12Z_MSC_GDPS_WindV_IsbL-0985_LatLon0.15_PT099H.grib2 2026-04-11 16:45 1.4M
20260411T12Z_MSC_GDPS_WindV_IsbL-1000_LatLon0.15_PT099H.grib2 2026-04-11 16:45 1.4M
20260411T12Z_MSC_GDPS_WindV_IsbL-1015_LatLon0.15_PT099H.grib2 2026-04-11 16:45 1.4M